Location: Copeville
(33.0796°N, 96.4155°W)
Time: 12:53:00
(UTC+00:00)

SEEDS - Pass Details

Date: 07 April 2023
Orbit: 568 x 587 km, 97.7° (Epoch: 29 May)

Event Time Altitude Azimuth Distance (km) Brightness Sun altitude
Rises 09:53:12 0° 20° (NNE) 2,826 ? -27.1°
Maximum altitude 09:59:25 41° 99° (E) 852 ? -25.9°
Enters shadow 10:00:23 35° 134° (SE) 949 ? -25.8°
